Location: Arroyo Grande
(40.2671°N, 4.2512°W)
Time: 07:23:05
(UTC+00:00)

Lacrosse 5 - Pass Details

Date: 03 February 2023
Orbit: 714 x 724 km, 57.0° (Epoch: 09 March)

Event Time Altitude Azimuth Distance (km) Brightness Sun altitude
Rises 18:23:00 0° 231° (SW) 3,121 6.5 -9.1°
Reaches altitude 10° 18:25:23 10° 234° (SW) 2,205 5.6 -9.5°
Maximum altitude 18:30:27 66° 317° (NW) 788 2.2 -10.5°
Drops below altitude 10° 18:35:32 10° 40° (NE) 2,219 3.9 -11.4°
Enters shadow 18:35:50 - 40° (NE) 2,331 4.0 -11.5°
